Location: La Brionne
(46.1728°N, 1.7849°E)
Time: 21:17:29
(UTC+00:00)

SJ 16-02 - Pass Details

Date: 16 June 2021
Orbit: 606 x 616 km, 75.0° (Epoch: 02 August)

Event Time Altitude Azimuth Distance (km) Brightness Sun altitude
Rises 23:48:46 0° 345° (NNW) 2,876 6.2 -20.4°
Reaches altitude 10° 23:51:08 10° 353° (N) 1,967 5.1 -20.4°
Maximum altitude 23:55:17 41° 64° (ENE) 890 2.3 -20.4°
Enters shadow 23:57:08 27° 115° (ESE) 1,184 2.6 -20.4°
